Weather in Voyampolka

Russia / Kamchatka Krai     58°18′22″N   159°23′35″E
temp.,
°C
wind,
m/s
gust,
m/s
humid.,
%
clouds,
%
prec.,
mm/h
press.,
hPa
HPBL,
m
16 may, sun
sun1600:00+2sw2597100 0.4 1023441
03:00+2s2596100 0.1 1023236
06:00+1sse359598 0.1 1023162
09:00+5sse348028 0.0 1021502
12:00+9s335376 0.0 10191482
15:00+11ese2347100 0.0 10171487
18:00+10ese6755100 0.0 1015567
21:00+7ese3671100 0.0 1014173
17 may, mon
mon1700:00+5ese3571100 0.0 1012121
03:00+4ese3469100 0.0 101071
06:00+4se357494 0.0 1008142
09:00+8sse4558100 0.0 1007384
12:00+11se3348100 0.0 10051473
15:00+12se4344100 0.0 10031682
18:00+10sw5562100 0.1 10031242
21:00+3n5695100 2.3 1005563
18 may, tue
tue1800:00+3nne5797100 4.0 1004414
03:00+3ne3697100 0.1 1004371
06:00+3e2397100 0.8 1003438
09:00+4se2489100 0.3 1003333
12:00+5sw2490100 0.4 1003814
15:00+4s0295100 1.5 1003770
18:00+5se1394100 2.3 1003839
21:00+4w2298100 1.9 1003553
19 may, wed
wed1900:00+4s2898100 4.9 1003773
03:00+3s1398100 3.2 1003485
06:00+4ssw61093100 5.3 1004808
09:00+3ssw61096100 0.1 1005649
12:00+3ssw51096100 0.4 1007703
15:00+4sw4689100 0.3 1007725
18:00+5sw148399 0.4 1007558
21:00+5sse2388100 0.1 1007209
20 may, thu
thu2000:00+4se2596100 1.2 1005165
03:00+4e3796100 4.8 1003240
06:00+4se1297100 9.8 100148
09:00+4ssw41095100 4.6 1002862
12:00+4ssw81394100 7.6 10041117
15:00+3sw71186100 0.4 10051094
18:00+4wsw81180100 0.9 10041112
21:00+1sw51098100 0.6 1005512